Regional Weather Roundup
Issued by NWS New Orleans/Baton Rouge, LA

Home | Current Version | Previous Version | Text Only | Print | Product List | Glossary Off
Versions: 1 2 3 4 5 6 7 8 9 10 11 12 13 14 15 16 17 18 19 20 21 22 23 24 25 26 27 28 29 30 31 32 33 34 35 36 37 38 39 40 41 42 43 44 45 46 47 48 49 50

608
ASUS44 KLIX 300010
RWRLIX
NEW ORLEANS REGIONAL WEATHER ROUNDUP
NATIONAL WEATHER SERVICE NEW ORLEANS LA
700 PM CDT MON SEP 29 2014

NOTE: "FAIR" INDICATES FEW OR NO CLOUDS BELOW 12,000 FEET WITH NO
      SIGNIFICANT WEATHER AND/OR OBSTRUCTIONS TO VISIBILITY.
      SKY/WX - SKY CONDITION AND SIGNIFICANT WEATHER.
      TMP - AIR TEMPERATURE.     DP    - DEWPOINT TEMPERATURE.
      RH  - RELATIVE HUMIDITY.   PRES  - PRESSURE.
      HI  - HEAT INDEX.          WCI   - WIND CHILL INDEX.

*  THESE STATIONS ARE NOT NWS OR FAA STATIONS AND ARE NOT UNDER
   NWS QUALITY CONTROL.

LAZ038-040-048-061>063-065>067-069-300100-
SOUTHEAST LOUISIANA

CITY           SKY/WX    TMP DP  RH WIND       PRES   REMARKS
N.O. AUDUBON     N/A     79  72  81 MISG        N/A
6HR MIN TEMP:  78; 6HR MAX TEMP:  86;

N.O. INTL ARPT PTCLDY    80  69  69 CALM      29.86S
6HR MIN TEMP:  78; 6HR MAX TEMP:  84;

N.O. LAKEFRONT CLEAR     79  73  82 NW5       29.87R
6HR MIN TEMP:  79; 6HR MAX TEMP:  82;

N.O. DOWNTOWN*   N/A     81  68  65 N3        29.87R
6HR MIN TEMP:  79; 6HR MAX TEMP:  88;

SLIDELL        CLEAR     79  73  82 CALM      29.86R
6HR MIN TEMP:  79; 6HR MAX TEMP:  86;

BATON ROUGE    PTCLDY    80  70  71 NE3       29.87R
6HR MIN TEMP:  80; 6HR MAX TEMP:  88;

BOOTHVILLE     CLEAR     79  72  79 CALM      29.87R HAZE
6HR MIN TEMP:  79; 6HR MAX TEMP:  82;

BELLE CHASSE   CLEAR     78  71  79 NE3       29.86R
6HR MIN TEMP:  78; 6HR MAX TEMP:  86;

BOGALUSA*        N/A     79  72  79 CALM      29.88R
6HR MIN TEMP:  79; 6HR MAX TEMP:  87;

GALLIANO*      NOT AVBL
NEW ROADS*     CLOUDY    79  74  83 CALM      29.87S
6HR MIN TEMP:  79; 6HR MAX TEMP:  86;

GONZALES*        N/A     78  77  99 CALM      29.86S
6HR MIN TEMP:  78; 6HR MAX TEMP:  86;

HAMMOND*       CLEAR     79  72  78 CALM      29.88S
HOUMA*         PTCLDY   N/A N/A N/A N3        29.86S
PORT FOURCHON* CLEAR     81  73  78 E6        29.90R

$$

MSZ070-080>082-300100-
SOUTHERN MISSISSIPPI

CITY           SKY/WX    TMP DP  RH WIND       PRES   REMARKS
MCCOMB         CLEAR     80  70  71 CALM      29.89R
6HR MIN TEMP:  78; 6HR MAX TEMP:  87;

GULFPORT       CLOUDY    81  72  74 NE5       29.86R
6HR MIN TEMP:  80; 6HR MAX TEMP:  85; 6HR PCP: TRACE;

BILOXI         MOCLDY    80  72  77 NE3       29.86R
6HR MIN TEMP:  78; 6HR MAX TEMP:  85; 6HR PCP:  0.01;

PASCAGOULA     MOCLDY    77  71  82 NE3       29.86R
6HR MIN TEMP:  77; 6HR MAX TEMP:  85; 6HR PCP: TRACE;

STENNIS ARPT*  PTCLDY    81  68  65 CALM      29.86S

$$

COASTAL OBSERVATIONS
LAKE AND NEARSHORE STATIONS

STATION/POSITION TIME  TEMP    WIND        PRES    WAVE
                       AIR SEA DIR/SP/G            HT/PER
                 (UTC) (F)     (DEG/KT/KT) (MB)    (FT/S)
PASCAGOULA       0000   80      20/  5/  7 1010.5
WAVELAND YACHT   0000   79     210/  3/  4 1010.6
GRAND ISLE       0000   80 81   50/  3/  4 1011.9
SOUTHWEST PASS   0000   82 86   40/  8/  9 1011.4
NEW CANAL        0000   79 78   CALM  /  2 1011.6
SHELL BEACH      0000   80 74   10/  3/  4 1011.1

OFFSHORE STATIONS

STATION/POSITION TIME  TEMP    WIND        PRES    WAVE
                       AIR SEA DIR/SP/G            HT/PER
                 (UTC) (F)     (DEG/KT/KT) (MB)    (FT/S)

$$




USA.gov is the U.S. government's official web portal to all federal, state and local government web resources and services.